[[{"header":{"parameterUnit":"m.s-1","parameterCategory":2,"la1":30.2991,"la2":30.254,"lo1":-89.0895,"lo2":-89.0444,"dy":0.0017,"dx":0.0017,"nx":28,"ny":28,"refTime":"2025-07-08T21:00:00:Z","depth":"0","parameterNumber":2,"parameterNumberName":"U-component_of_CURRENTS"},"data":[0,0,0,0,0,0,0,0,0,0,0,0,0,0,0,0,0,0,0,0,0,0,0,0,0,0,0,0,0,0,0,0,0,0,0,0,0,0,0,0,0,0,0,0,0,0,0,0,0,0,0,0,0,0,0,0,0,0,0.2095,0.2096,0,0.2118,0.2118,0.2118,0.2117,0.2117,0.2117,0.2117,0.2134,0.2135,0.2135,0,0,0,0,0,0,0,0,0,0,0,0,0,0.2073,0.2073,0.2095,0.2096,0.2096,0.2118,0.2118,0.2118,0.2117,0.2117,0.2117,0.2117,0.2134,0.2134,0.2135,0,0,0,0,0,0,0,0,0,0,0,0,0,0.2087,0.2073,0.2095,0.2099,0.21,0.2118,0.2118,0.2118,0.2117,0.2117,0.2117,0.2117,0.2133,0.2134,0.2135,0.2148,0,0,0.2138,0.2139,0,0,0,0,0,0,0,0,0.2086,0.2088,0.2098,0.2099,0.2099,0.2115,0.2117,0.2128,0.2118,0.2109,0.2117,0.2116,0.2128,0.213,0.2133,0.2149,0.215,0.2139,0.2139,0.214,0.214,0,0,0,0,0,0,0,0.2085,0.2087,0.2103,0.2098,0.2099,0.2107,0.2109,0.2119,0.2119,0.211,0.211,0.2115,0.2128,0.2132,0.2134,0.215,0.2138,0.2139,0.214,0.214,0.2232,0.2234,0,0,0,0,0,0,0.2084,0.2086,0.2102,0.2104,0.2093,0.2108,0.2109,0.211,0.2119,0.2121,0.2115,0.2115,0.2131,0.2132,0.2134,0.2183,0.214,0.214,0.2141,0.223,0.2232,0.2234,0,0,0,0,0,0,0.2083,0.2085,0.2101,0.2096,0.2099,0.2109,0.2109,0.211,0.2117,0.2124,0.2125,0.2121,0.213,0.2133,0.2152,0.2182,0.2141,0.2142,0.2228,0.2231,0.2233,0.226,0,0,0,0,0,0,0.2082,0.2084,0.2086,0.2096,0.21,0.2114,0.211,0.2111,0.212,0.212,0.2129,0.213,0.213,0.2151,0.2153,0.2183,0.2143,0.2226,0.2229,0.2233,0.2257,0.2263,0.2269,0,0,0,0,0,0.2081,0.2083,0.2086,0.2088,0.21,0.2114,0.2116,0.2121,0.2121,0.2125,0.2136,0.2129,0.2175,0.2153,0.2155,0.2186,0.2224,0.2228,0.2232,0.2254,0.2262,0.2269,0,0,0,0,0,0,0.2075,0.2084,0.2087,0.2091,0.2103,0.2114,0.2119,0.2125,0.2137,0.2136,0.2142,0.2144,0.218,0.218,0.2155,0.2227,0.2204,0.2208,0.2219,0.2227,0.2233,0.2238,0.2143,0,0,0,0,0,0.2075,0.2077,0.209,0.2094,0.2099,0.2111,0.2117,0.2122,0.2134,0.2138,0.2147,0.2167,0.22,0.2208,0.223,0.2257,0.2264,0.2284,0.229,0.2295,0.2304,0.2356,0.2367,0.2248,0.2248,0.2248,0,0,0.2074,0.2079,0.208,0.2093,0.2101,0.2114,0.2113,0.2124,0.2142,0.2139,0.2162,0.2185,0.2214,0.2252,0.2268,0.2252,0.2329,0.23,0.2304,0.2311,0.2362,0.2373,0.2383,0.2251,0.225,0.225,0,0,0.2072,0.2077,0.2079,0.2091,0.2105,0.2117,0.2121,0.2136,0.2148,0.2173,0.2191,0.2233,0.2258,0.2296,0.2318,0.2372,0.2363,0.238,0.2408,0.2458,0.2468,0.2477,0.2475,0.2483,0.2378,0.2378,0.2378,0,0.2072,0.2075,0.2083,0.2093,0.2105,0.2119,0.2131,0.215,0.2171,0.219,0.2182,0.2267,0.2286,0.236,0.2383,0.2386,0.2392,0.2372,0.2465,0.2474,0.2482,0.2479,0.2488,0.238,0.238,0.2379,0.2379,0,0.2074,0.208,0.2084,0.2101,0.2117,0.2128,0.2157,0.2177,0.2193,0.2216,0.2281,0.2319,0.237,0.2393,0.2403,0.2486,0.2461,0.2467,0.244,0.2496,0.2488,0.2497,0.2382,0.2382,0.2381,0.2381,0,0,0.2063,0.208,0.2081,0.2088,0.2122,0.2132,0.2172,0.2211,0.2241,0.2279,0.2326,0.2404,0.2427,0.2456,0.2486,0.2533,0.2594,0.2525,0.2527,0.2512,0.2668,0.256,0.2559,0.2614,0.2617,0.2619,0.2628,0,0.2062,0.2072,0.2088,0.2107,0.2116,0.2149,0.2183,0.2225,0.2265,0.2313,0.2379,0.2431,0.2451,0.2479,0.2538,0.2587,0.2623,0.2588,0.2627,0.2628,0.2517,0.2569,0.2503,0.2498,0.2636,0.2638,0.2639,0,0.2057,0.2066,0.2077,0.2105,0.2113,0.213,0.2188,0.2221,0.2302,0.2334,0.2409,0.2452,0.2543,0.2544,0.2654,0.2628,0.2654,0.2682,0.2683,0.2583,0.2538,0.2473,0.2509,0.2486,0.2653,0.2651,0.265,0,0.2035,0.2057,0.2063,0.2073,0.2112,0.2128,0.2154,0.2225,0.2268,0.2349,0.2392,0.2489,0.2542,0.2611,0.267,0.2667,0.2767,0.2766,0.2689,0.268,0.2631,0.2613,0.2643,0.2843,0.2843,0.2843,0.2843,0,0.2026,0.2028,0.2048,0.2051,0.2067,0.2103,0.2143,0.2183,0.2266,0.2323,0.24,0.2469,0.2568,0.2635,0.2678,0.27,0.2772,0.2701,0.2689,0.2634,0.2616,0.2598,0.2596,0.2843,0.2843,0.2843,0.2843,0,0.1997,0.201,0.2015,0.2044,0.2053,0.2063,0.2126,0.2162,0.2237,0.232,0.2347,0.2467,0.254,0.2609,0.2706,0.2693,0.266,0.2718,0.2613,0.2587,0.2458,0.2458,0.2334,0.2277,0.2626,0.2623,0.2621,0,0.1982,0.1981,0.1997,0.1999,0.2008,0.2035,0.2059,0.2135,0.2183,0.2321,0.2358,0.2453,0.252,0.2589,0.2589,0.2604,0.2584,0.2521,0.251,0.2443,0.2438,0.2328,0.2283,0.2453,0.245,0.2447,0.2445,0,0.1957,0.1959,0.1962,0.1963,0.1975,0.1995,0.2036,0.2072,0.2171,0.2244,0.2333,0.2396,0.2465,0.2462,0.2459,0.2458,0.2405,0.2461,0.2458,0.2354,0.2177,0.2117,0.2419,0.2421,0.2424,0.2425,0.2427,0.2428,0.1936,0.1926,0.1926,0.1919,0.193,0.1936,0.1934,0.1999,0.2058,0.2145,0.2251,0.2308,0.2375,0.2366,0.2334,0.2233,0.2224,0.2197,0.2216,0.2118,0.2024,0.2228,0.2171,0.2172,0.2173,0.2173,0.2174,0,0.1903,0.1889,0.1883,0.1864,0.1844,0.1873,0.1901,0.1893,0.1923,0.2039,0.2105,0.2169,0.2172,0.219,0.2132,0.2043,0.1946,0.1991,0.1889,0.1869,0.2132,0.2089,0.1931,0.1931,0.1931,0.1931,0.1931,0.1931,0.1886,0.1854,0.1838,0.1777,0.1762,0.1715,0.1711,0.1718,0.177,0.1819,0.1862,0.1939,0.2061,0.2094,0.2006,0.1938,0.1838,0.1712,0.1718,0.1995,0.2018,0.2039,0.2,0.1826,0.1826,0.1386,0.1383,0.1381]},{"header":{"parameterUnit":"m.s-1","parameterCategory":2,"la1":30.2991,"la2":30.254,"lo1":-89.0895,"lo2":-89.0444,"dy":0.0017,"dx":0.0017,"nx":28,"ny":28,"refTime":"2025-07-08T21:00:00:Z","depth":"0","parameterNumber":3,"parameterNumberName":"V-component_of_CURRENTS"},"data":[0,0,0,0,0,0,0,0,0,0,0,0,0,0,0,0,0,0,0,0,0,0,0,0,0,0,0,0,0,0,0,0,0,0,0,0,0,0,0,0,0,0,0,0,0,0,0,0,0,0,0,0,0,0,0,0,0,0,0.0147,0.0147,0,0.012,0.012,0.012,0.0094,0.0094,0.0094,0.0093,0.0037,0.0035,0.0034,0,0,0,0,0,0,0,0,0,0,0,0,0,0.0132,0.0132,0.0147,0.0147,0.0147,0.012,0.012,0.012,0.0094,0.0094,0.0093,0.0093,0.0037,0.0036,0.0034,0,0,0,0,0,0,0,0,0,0,0,0,0,0.0124,0.0133,0.0147,0.0131,0.013,0.0121,0.012,0.0119,0.0094,0.0094,0.0093,0.0093,0.0038,0.0036,0.0034,0.0029,0,0,0.0028,0.0027,0,0,0,0,0,0,0,0,0.0125,0.0125,0.0134,0.0133,0.0131,0.0111,0.0094,0.0088,0.0094,0.0107,0.0093,0.0093,0.006,0.0056,0.0051,0.0026,0.0024,0.0028,0.0027,0.0026,0.0025,0,0,0,0,0,0,0,0.0125,0.0126,0.0136,0.0134,0.0132,0.0111,0.0109,0.0092,0.0084,0.0106,0.0104,0.0103,0.0058,0.0053,0.0049,0.0023,0.0028,0.0026,0.0025,0.0024,-0.0008,-0.0008,0,0,0,0,0,0,0.0134,0.0126,0.0136,0.0135,0.0128,0.0111,0.011,0.0117,0.0085,0.008,0.0103,0.0101,0.0056,0.0051,0.0047,0.0053,0.0026,0.0024,0.0023,-0.0008,-0.0008,-0.0008,0,0,0,0,0,0,0.0134,0.0135,0.0138,0.013,0.0129,0.0113,0.012,0.0117,0.0112,0.0083,0.0078,0.0102,0.0056,0.005,0.0039,0.005,0.0023,0.0021,-0.0009,-0.0008,-0.0008,0.0056,0,0,0,0,0,0,0.0133,0.0135,0.0142,0.0131,0.013,0.014,0.012,0.0116,0.0112,0.011,0.0081,0.0075,0.0055,0.0042,0.0037,0.0047,0.002,-0.0009,-0.0008,-0.0008,0.0053,0.0058,0.0062,0,0,0,0,0,0.0133,0.0147,0.0142,0.0143,0.014,0.014,0.0138,0.0123,0.0113,0.0117,0.0097,0.0076,0.0042,0.0041,0.0035,0.0044,-0.0009,-0.0009,-0.0008,0.0051,0.0057,0.0062,0,0,0,0,0,0,0.0142,0.0146,0.014,0.0154,0.015,0.0137,0.0138,0.0128,0.0115,0.0111,0.0082,0.0076,0.0069,0.0047,0.0047,0.0035,0.0012,0.0011,0.0059,0.0064,0.0069,0.0085,0.0018,0,0,0,0,0,0.0148,0.016,0.0156,0.0166,0.0167,0.0152,0.0149,0.0141,0.0129,0.0123,0.0104,0.0082,0.0067,0.0059,0.004,0.0036,0.0024,0.0036,0.0041,0.0045,0.0054,0.0053,0.0059,-0.0005,-0.0005,-0.0005,0,0,0.0152,0.0156,0.0162,0.0168,0.0163,0.0173,0.015,0.0151,0.0159,0.0118,0.0121,0.0097,0.0069,0.0066,0.0061,0.0049,0.0056,0.0046,0.005,0.0057,0.0054,0.0061,0.0067,-0.0005,-0.0005,-0.0005,0,0,0.0171,0.0173,0.019,0.0193,0.0192,0.0187,0.019,0.0181,0.0177,0.0175,0.015,0.0138,0.0111,0.01,0.0089,0.0108,0.0081,0.0095,0.0133,0.0133,0.0138,0.0143,0.0133,0.0137,0.0098,0.0098,0.0098,0,0.0175,0.02,0.0193,0.021,0.0219,0.0198,0.0218,0.0212,0.02,0.0202,0.0183,0.0156,0.0131,0.0135,0.0139,0.0121,0.0111,0.0117,0.0141,0.0145,0.0149,0.0138,0.0141,0.0101,0.0101,0.01,0.01,0,0.0208,0.0226,0.0237,0.0256,0.0262,0.0276,0.0272,0.0274,0.0263,0.0254,0.0252,0.0221,0.0207,0.0194,0.0171,0.0186,0.0166,0.0148,0.0131,0.016,0.0145,0.0148,0.0106,0.0104,0.0104,0.0103,0,0,0.0222,0.0256,0.0259,0.028,0.029,0.0302,0.0317,0.0329,0.0344,0.0322,0.034,0.031,0.0289,0.0276,0.0246,0.0241,0.0255,0.0209,0.0207,0.0208,0.0248,0.022,0.0219,0.0243,0.0243,0.0244,0.0227,0,0.0251,0.0299,0.0306,0.0349,0.0374,0.0369,0.0389,0.0393,0.0388,0.0398,0.0367,0.0367,0.0322,0.0318,0.0307,0.0266,0.0264,0.0261,0.0213,0.0211,0.019,0.0222,0.0238,0.0223,0.0229,0.0229,0.0229,0,0.0283,0.0314,0.0365,0.0408,0.0418,0.0439,0.0471,0.0486,0.0488,0.0485,0.0475,0.0446,0.0433,0.0393,0.035,0.0349,0.0309,0.0275,0.0273,0.0228,0.0187,0.0194,0.0226,0.0153,0.0232,0.0232,0.0232,0,0.0307,0.0356,0.0402,0.0417,0.0458,0.0479,0.0498,0.0511,0.0539,0.0541,0.0558,0.0525,0.0518,0.0466,0.0384,0.0372,0.0332,0.0307,0.0246,0.0243,0.0239,0.0234,0.0203,0.0291,0.0291,0.0291,0.0291,0,0.0341,0.0377,0.0418,0.0445,0.0501,0.0514,0.057,0.0579,0.0608,0.0655,0.0607,0.0633,0.0538,0.0495,0.0416,0.0336,0.0358,0.0263,0.0243,0.0259,0.0256,0.0176,0.0131,0.0291,0.0291,0.0291,0.0291,0,0.0361,0.0388,0.0445,0.0497,0.0516,0.0555,0.0622,0.0667,0.068,0.0742,0.0749,0.0719,0.0663,0.0558,0.0468,0.0384,0.0269,0.0271,0.0288,0.027,0.014,0.0098,0.0045,0.004,0.0208,0.0208,0.0207,0,0.0378,0.041,0.0482,0.0523,0.055,0.0611,0.0662,0.0699,0.0755,0.0802,0.0842,0.0798,0.0791,0.0631,0.0469,0.0328,0.0259,0.0243,0.0224,0.0145,0.0084,0.0057,0.0056,0.0241,0.0241,0.0241,0.0241,0,0.041,0.0434,0.0483,0.0566,0.0628,0.0706,0.0781,0.0838,0.0895,0.0952,0.101,0.1004,0.0843,0.0702,0.0482,0.0375,0.0205,0.0233,0.0157,0.0115,0.0081,0.0062,0.0229,0.0239,0.0239,0.0239,0.0239,0.0239,0.0431,0.047,0.0536,0.0616,0.0691,0.0793,0.0871,0.0963,0.1066,0.1176,0.1147,0.118,0.0949,0.0652,0.0467,0.0173,0.019,0.0106,0.0065,0.0047,0.0037,0.0191,0.0169,0.0169,0.0169,0.0169,0.0169,0,0.0458,0.0509,0.0585,0.0685,0.0775,0.0812,0.0949,0.1046,0.1185,0.1293,0.1355,0.1285,0.0991,0.0683,0.0273,0.0062,0.0001,-0.005,-0.0073,-0.0062,0.0083,0.0079,0.003,0.003,0.003,0.003,0.003,0.003,0.0476,0.0548,0.059,0.0735,0.0813,0.0948,0.1036,0.1186,0.1303,0.1472,0.153,0.155,0.1341,0.0527,0.0037,-0.0077,-0.0185,-0.0242,-0.028,-0.0187,-0.0176,-0.0164,-0.0178,-0.028,-0.0281,-0.0378,-0.038,-0.0381]}],[{"header":{"parameterUnit":"m.s-1","parameterCategory":2,"la1":30.2991,"la2":30.254,"lo1":-89.0895,"lo2":-89.0444,"dy":0.0017,"dx":0.0017,"nx":28,"ny":28,"refTime":"2025-07-08T21:00:00:Z","depth":"2","parameterNumber":2,"parameterNumberName":"U-component_of_CURRENTS"},"data":[0,0,0,0,0,0,0,0,0,0,0,0,0,0,0,0,0,0,0,0,0,0,0,0,0,0,0,0,0,0,0,0,0,0,0,0,0,0,0,0,0,0,0,0,0,0,0,0,0,0,0,0,0,0,0,0,0,0,0.1826,0.1826,0,0.1839,0.1839,0.1839,0.184,0.184,0.184,0.184,0.1855,0.1855,0.1855,0,0,0,0,0,0,0,0,0,0,0,0,0,0.1814,0.1814,0.1826,0.1826,0.1826,0.1839,0.1839,0.1839,0.184,0.184,0.184,0.184,0.1855,0.1855,0.1855,0,0,0,0,0,0,0,0,0,0,0,0,0,0.1821,0.1814,0.1826,0.183,0.183,0.1839,0.1839,0.1839,0.184,0.184,0.184,0.184,0.1854,0.1855,0.1856,0.1859,0,0,0.1857,0.1857,0,0,0,0,0,0,0,0,0.182,0.1821,0.1829,0.183,0.183,0.1839,0.184,0.1846,0.184,0.1835,0.184,0.184,0.1851,0.1851,0.1852,0.1859,0.186,0.1857,0.1858,0.1858,0.1858,0,0,0,0,0,0,0,0.182,0.182,0.1829,0.1829,0.183,0.1835,0.1836,0.1841,0.1842,0.1835,0.1836,0.184,0.1851,0.1851,0.1852,0.186,0.1857,0.1858,0.1858,0.1858,0.1949,0.195,0,0,0,0,0,0,0.182,0.182,0.1829,0.183,0.1827,0.1835,0.1836,0.1835,0.1841,0.1843,0.184,0.184,0.185,0.1852,0.1853,0.1901,0.1858,0.1858,0.1859,0.1946,0.1949,0.1951,0,0,0,0,0,0,0.182,0.1821,0.1829,0.1827,0.1828,0.1835,0.1835,0.1835,0.1845,0.1845,0.1846,0.185,0.185,0.1852,0.1869,0.19,0.1859,0.1859,0.1944,0.1947,0.195,0.1969,0,0,0,0,0,0,0.182,0.1821,0.1824,0.1827,0.1828,0.1839,0.1835,0.1836,0.1848,0.1848,0.1854,0.1855,0.185,0.1868,0.1869,0.19,0.186,0.1941,0.1945,0.1949,0.1966,0.1972,0.1978,0,0,0,0,0,0.1819,0.1821,0.1824,0.1826,0.1832,0.1839,0.1841,0.1845,0.1848,0.1853,0.1861,0.1855,0.1895,0.1869,0.1871,0.1902,0.194,0.1944,0.1949,0.1963,0.1971,0.1978,0,0,0,0,0,0,0.1819,0.1822,0.1825,0.1829,0.1837,0.184,0.1846,0.1852,0.1862,0.1865,0.1865,0.1866,0.1899,0.1901,0.1874,0.1945,0.1923,0.1928,0.1934,0.1941,0.1947,0.1949,0.186,0,0,0,0,0,0.1821,0.1823,0.1829,0.1834,0.1838,0.1845,0.1851,0.1855,0.1863,0.1868,0.1874,0.1893,0.1919,0.1928,0.1945,0.197,0.1975,0.2,0.2006,0.2011,0.2018,0.2068,0.2079,0.1966,0.1966,0.1966,0,0,0.1822,0.1825,0.1826,0.1834,0.184,0.185,0.1848,0.1859,0.1875,0.1868,0.1892,0.191,0.1932,0.1966,0.1982,0.1969,0.2041,0.2017,0.2021,0.2025,0.2074,0.2085,0.2094,0.197,0.1969,0.1968,0,0,0.1823,0.1828,0.183,0.1839,0.1852,0.1859,0.1866,0.1877,0.1888,0.1911,0.1923,0.1958,0.1982,0.2009,0.2026,0.2079,0.2072,0.2095,0.2122,0.2171,0.218,0.2188,0.2177,0.2184,0.2097,0.2097,0.2097,0,0.1827,0.1828,0.1833,0.1842,0.1853,0.1865,0.1876,0.1892,0.191,0.1927,0.1923,0.1994,0.2007,0.2065,0.2088,0.2091,0.21,0.2084,0.2176,0.2185,0.2193,0.218,0.2187,0.2098,0.2098,0.2098,0.2098,0,0.1829,0.1836,0.184,0.1855,0.1868,0.1879,0.1902,0.1922,0.194,0.1959,0.2016,0.2041,0.2085,0.2105,0.2109,0.2185,0.2164,0.2175,0.2149,0.2205,0.2188,0.2195,0.21,0.21,0.2099,0.2099,0,0,0.1823,0.1838,0.184,0.1846,0.1876,0.1883,0.1921,0.1954,0.1982,0.2016,0.2058,0.2119,0.2139,0.2163,0.2185,0.2229,0.228,0.2229,0.2231,0.2202,0.235,0.2263,0.2262,0.2312,0.2314,0.2316,0.2303,0,0.1824,0.1834,0.1847,0.1865,0.1872,0.1902,0.1933,0.197,0.2006,0.2049,0.2101,0.2147,0.2161,0.2187,0.2238,0.2279,0.2307,0.2279,0.2315,0.2315,0.222,0.2272,0.2115,0.2085,0.231,0.2311,0.2312,0,0.1821,0.1828,0.1841,0.1865,0.1872,0.189,0.1941,0.1971,0.2042,0.2072,0.2138,0.2174,0.225,0.2251,0.2342,0.2326,0.2342,0.2362,0.2363,0.2284,0.2244,0.2076,0.209,0.2324,0.2323,0.2323,0.2322,0,0.1802,0.1823,0.183,0.1839,0.1873,0.189,0.1915,0.1979,0.2017,0.2091,0.2133,0.2214,0.2262,0.2319,0.2364,0.2362,0.2444,0.2442,0.2368,0.236,0.2234,0.221,0.2501,0.2501,0.2502,0.2502,0.2502,0,0.1794,0.1798,0.1819,0.1822,0.1839,0.1872,0.1911,0.1948,0.2023,0.2074,0.2145,0.2203,0.2291,0.2347,0.2375,0.2388,0.2453,0.2377,0.2367,0.2232,0.221,0.2432,0.2424,0.2501,0.2501,0.2501,0.2501,0,0.1769,0.1783,0.1789,0.1818,0.1828,0.184,0.1901,0.1933,0.2006,0.2079,0.2107,0.2212,0.2275,0.233,0.2407,0.2389,0.2413,0.2396,0.2199,0.2165,0.2283,0.2276,0.2308,0.2305,0.2303,0.2301,0.2299,0,0.1755,0.1756,0.1776,0.1779,0.179,0.1819,0.1842,0.1914,0.1956,0.2082,0.2113,0.2201,0.2251,0.2305,0.2292,0.2289,0.236,0.2118,0.2095,0.2285,0.2271,0.2268,0.2265,0.1918,0.1914,0.191,0.1907,0,0.1731,0.1737,0.1741,0.1748,0.1762,0.178,0.182,0.185,0.1942,0.2007,0.2083,0.2133,0.2184,0.2117,0.2105,0.2084,0.2106,0.2038,0.2319,0.1992,0.1917,0.1904,0.1914,0.1873,0.1876,0.1879,0.1881,0.1882,0.1713,0.1704,0.1708,0.1706,0.172,0.1721,0.1717,0.1774,0.1822,0.189,0.1985,0.1994,0.2011,0.1914,0.1846,0.1772,0.192,0.1833,0.1846,0.1862,0.182,0.1746,0.1657,0.1659,0.1661,0.1663,0.1664,0,0.168,0.167,0.1667,0.1652,0.1633,0.1665,0.1684,0.1664,0.1683,0.1764,0.1812,0.1667,0.1628,0.163,0.1477,0.1454,0.1443,0.138,0.1372,0.1408,0.1439,0.1376,0.1095,0.1093,0.1091,0.1089,0,0,0.1663,0.1635,0.162,0.1563,0.1555,0.1507,0.1499,0.1484,0.1506,0.1489,0.148,0.1606,0.1624,0.1367,0.1316,0.1186,0.1287,0.1129,0.1593,0.1625,0.1654,0.1713,0.1657,0,0,0,0,0]},{"header":{"parameterUnit":"m.s-1","parameterCategory":2,"la1":30.2991,"la2":30.254,"lo1":-89.0895,"lo2":-89.0444,"dy":0.0017,"dx":0.0017,"nx":28,"ny":28,"refTime":"2025-07-08T21:00:00:Z","depth":"2","parameterNumber":3,"parameterNumberName":"V-component_of_CURRENTS"},"data":[0,0,0,0,0,0,0,0,0,0,0,0,0,0,0,0,0,0,0,0,0,0,0,0,0,0,0,0,0,0,0,0,0,0,0,0,0,0,0,0,0,0,0,0,0,0,0,0,0,0,0,0,0,0,0,0,0,0,0.0156,0.0156,0,0.0127,0.0127,0.0126,0.0101,0.0101,0.0101,0.0101,0.0045,0.0044,0.0043,0,0,0,0,0,0,0,0,0,0,0,0,0,0.0145,0.0146,0.0156,0.0156,0.0155,0.0127,0.0127,0.0126,0.0101,0.0101,0.0101,0.0101,0.0046,0.0044,0.0042,0,0,0,0,0,0,0,0,0,0,0,0,0,0.0136,0.0146,0.0156,0.014,0.0139,0.0127,0.0127,0.0126,0.0101,0.0101,0.0101,0.01,0.0046,0.0044,0.0042,0.0036,0,0,0.0036,0.0035,0,0,0,0,0,0,0,0,0.0137,0.0136,0.0143,0.0141,0.014,0.0118,0.0102,0.0095,0.0101,0.0115,0.0101,0.01,0.0068,0.0064,0.0058,0.0034,0.0031,0.0036,0.0035,0.0034,0.0034,0,0,0,0,0,0,0,0.0137,0.0137,0.0144,0.0143,0.0141,0.012,0.0118,0.0101,0.0092,0.0113,0.0112,0.011,0.0067,0.006,0.0057,0.003,0.0036,0.0034,0.0033,0.0033,-0.0,-0.0,0,0,0,0,0,0,0.0145,0.0138,0.0144,0.0143,0.0138,0.012,0.0119,0.0125,0.0093,0.0088,0.011,0.0109,0.0064,0.0059,0.0055,0.006,0.0034,0.0032,0.0031,-0.0001,-0.0,-0.0,0,0,0,0,0,0,0.0146,0.0147,0.0146,0.014,0.0138,0.0121,0.0128,0.0124,0.012,0.0091,0.0085,0.011,0.0063,0.0058,0.0046,0.0057,0.0031,0.003,-0.0001,-0.0001,-0.0,0.0061,0,0,0,0,0,0,0.0145,0.0147,0.0153,0.0141,0.0139,0.0146,0.0128,0.0124,0.0119,0.0117,0.0089,0.0083,0.0063,0.0049,0.0044,0.0054,0.0028,-0.0001,-0.0001,-0.0,0.0059,0.0064,0.0068,0,0,0,0,0,0.0145,0.0158,0.0154,0.0154,0.0148,0.0147,0.0144,0.013,0.012,0.0123,0.0104,0.0084,0.0049,0.0048,0.0042,0.0052,-0.0002,-0.0001,-0.0,0.0057,0.0063,0.0068,0,0,0,0,0,0,0.0154,0.0157,0.0151,0.0163,0.0158,0.0143,0.0144,0.0134,0.0121,0.0117,0.0089,0.0083,0.0076,0.0054,0.0054,0.0043,0.002,0.0019,0.0065,0.0071,0.0075,0.009,0.0027,0,0,0,0,0,0.016,0.0172,0.0166,0.0175,0.0175,0.016,0.0156,0.0148,0.0135,0.0129,0.011,0.0088,0.0074,0.0065,0.0047,0.0042,0.0029,0.0043,0.0047,0.0052,0.0059,0.0057,0.0063,0.0002,0.0002,0.0002,0,0,0.0165,0.0168,0.0173,0.0177,0.0171,0.018,0.0157,0.0157,0.0164,0.0125,0.0126,0.0103,0.0075,0.0072,0.0066,0.0055,0.006,0.0052,0.0056,0.0062,0.0058,0.0065,0.007,0.0002,0.0002,0.0002,0,0,0.0183,0.0184,0.02,0.0201,0.0199,0.0193,0.0196,0.0186,0.0181,0.0178,0.0154,0.0142,0.0115,0.0105,0.0094,0.0112,0.0085,0.0099,0.0136,0.0134,0.014,0.0144,0.0133,0.0136,0.0102,0.0102,0.0103,0,0.0186,0.021,0.0202,0.0218,0.0225,0.0204,0.0222,0.0216,0.0203,0.0204,0.0186,0.0159,0.0134,0.0138,0.0142,0.0124,0.0113,0.012,0.0142,0.0146,0.015,0.0137,0.014,0.0105,0.0105,0.0105,0.0105,0,0.0218,0.0235,0.0244,0.0261,0.0267,0.0278,0.0273,0.0275,0.0263,0.0255,0.0252,0.0221,0.0207,0.0195,0.0173,0.0186,0.0166,0.015,0.0133,0.016,0.0145,0.0146,0.011,0.0109,0.0108,0.0107,0,0,0.0231,0.0262,0.0265,0.0285,0.0293,0.0304,0.0317,0.0327,0.0341,0.0319,0.0336,0.0306,0.0286,0.0273,0.0245,0.0239,0.0251,0.0208,0.0206,0.0205,0.0241,0.0214,0.0213,0.0239,0.024,0.024,0.0219,0,0.0258,0.0304,0.031,0.035,0.0374,0.0368,0.0386,0.039,0.0383,0.0392,0.0361,0.0361,0.0318,0.0314,0.0303,0.0262,0.0258,0.0257,0.0207,0.0206,0.0186,0.0215,0.0217,0.0197,0.0221,0.0221,0.0221,0,0.0289,0.0318,0.0366,0.0408,0.0417,0.0436,0.0466,0.048,0.048,0.0476,0.0467,0.0438,0.0424,0.0385,0.034,0.0341,0.03,0.0267,0.0265,0.0221,0.0183,0.0173,0.0199,0.0223,0.0223,0.0223,0.0223,0,0.0313,0.0358,0.0403,0.0416,0.0455,0.0475,0.0494,0.0504,0.053,0.0531,0.0547,0.0514,0.0506,0.0453,0.0372,0.0361,0.0319,0.0295,0.0235,0.0232,0.0214,0.0208,0.0276,0.0277,0.0277,0.0277,0.0277,0,0.0345,0.0379,0.0418,0.0445,0.0498,0.051,0.0563,0.0571,0.0598,0.0642,0.0595,0.0617,0.0524,0.0481,0.0402,0.0322,0.0343,0.025,0.0231,0.0233,0.023,0.0235,0.0231,0.0276,0.0276,0.0276,0.0276,0,0.0364,0.039,0.0445,0.0495,0.0513,0.0551,0.0615,0.0657,0.0669,0.0726,0.0733,0.0701,0.0643,0.054,0.0449,0.0368,0.0288,0.0255,0.0257,0.0238,0.0194,0.0193,0.0193,0.0193,0.0192,0.0191,0.019,0,0.038,0.0411,0.048,0.052,0.0545,0.0605,0.0653,0.0689,0.0742,0.0783,0.082,0.0774,0.076,0.0601,0.0445,0.0305,0.0287,0.021,0.0191,0.0208,0.0189,0.0189,0.0189,0.0189,0.0188,0.0188,0.0188,0,0.041,0.0433,0.048,0.0561,0.0621,0.0696,0.0767,0.0821,0.0874,0.0925,0.0973,0.096,0.0801,0.0648,0.0435,0.0335,0.0228,0.0196,0.0227,0.0207,0.0201,0.0183,0.0184,0.0184,0.0184,0.0184,0.0184,0.0185,0.043,0.0467,0.0531,0.0608,0.0681,0.0777,0.0852,0.0937,0.103,0.1119,0.1089,0.1076,0.0877,0.061,0.0405,0.019,0.0219,0.0144,0.0147,0.015,0.015,0.0144,0.0115,0.0115,0.0115,0.0115,0.0115,0,0.0455,0.0503,0.0576,0.0673,0.0759,0.0796,0.0926,0.1012,0.1134,0.1202,0.1245,0.1055,0.0861,0.0627,0.031,0.0126,0.0109,0.0057,0.008,0.0086,0.009,0.0088,0.0035,0.0034,0.0034,0.0033,0,0,0.0471,0.0539,0.0579,0.0719,0.0794,0.0924,0.1006,0.1133,0.1215,0.1298,0.1291,0.1248,0.0947,0.0699,0.043,0.0236,0.0207,0.0194,0.0281,0.0347,0.0354,0.0165,0.0171,0,0,0,0,0]}],[{"header":{"parameterUnit":"m.s-1","parameterCategory":2,"la1":30.2991,"la2":30.254,"lo1":-89.0895,"lo2":-89.0444,"dy":0.0017,"dx":0.0017,"nx":28,"ny":28,"refTime":"2025-07-08T21:00:00:Z","depth":"4","parameterNumber":2,"parameterNumberName":"U-component_of_CURRENTS"},"data":[0,0,0,0,0,0,0,0,0,0,0,0,0,0,0,0,0,0,0,0,0,0,0,0,0,0,0,0,0,0,0,0,0,0,0,0,0,0,0,0,0,0,0,0,0,0,0,0,0,0,0,0,0,0,0,0,0,0,0.1142,0.1143,0,0.1156,0.1156,0.1156,0.1178,0.1178,0.1179,0.1179,0.1187,0.1187,0.1186,0,0,0,0,0,0,0,0,0,0,0,0,0,0.1122,0.1123,0.1142,0.1143,0.1143,0.1156,0.1156,0.1156,0.1178,0.1178,0.1179,0.118,0.1187,0.1187,0.1186,0,0,0,0,0,0,0,0,0,0,0,0,0,0.1131,0.1123,0.1142,0.1157,0.1158,0.1156,0.1156,0.1156,0.1177,0.1178,0.1179,0.118,0.1187,0.1187,0.1186,0.1166,0,0,0.1185,0.1184,0,0,0,0,0,0,0,0,0.1131,0.1132,0.1154,0.1156,0.1158,0.1168,0.1152,0.1159,0.1177,0.1168,0.1179,0.118,0.1181,0.1181,0.1179,0.1166,0.1166,0.1185,0.1184,0.1184,0.1184,0,0,0,0,0,0,0,0.113,0.1131,0.1146,0.1155,0.1157,0.1159,0.1161,0.1153,0.1168,0.1169,0.1171,0.1175,0.1181,0.1179,0.1179,0.1166,0.1185,0.1184,0.1184,0.1184,0.1213,0.1214,0,0,0,0,0,0,0.1132,0.113,0.1145,0.1146,0.1148,0.1158,0.1161,0.1162,0.1168,0.117,0.1175,0.1176,0.1179,0.1179,0.1179,0.1222,0.1184,0.1184,0.1183,0.1212,0.1213,0.1215,0,0,0,0,0,0,0.1131,0.1133,0.1145,0.114,0.1142,0.1158,0.1159,0.1162,0.1188,0.1173,0.1175,0.1202,0.118,0.118,0.12,0.122,0.1183,0.1183,0.1211,0.1212,0.1214,0.1264,0,0,0,0,0,0,0.1131,0.1133,0.1148,0.114,0.1143,0.1161,0.1159,0.1162,0.1189,0.1192,0.1196,0.1196,0.1181,0.1201,0.12,0.1218,0.1182,0.1209,0.1211,0.1213,0.1261,0.1267,0.1272,0,0,0,0,0,0.113,0.114,0.1148,0.1151,0.1158,0.1162,0.1163,0.1176,0.119,0.1203,0.1212,0.1198,0.1213,0.1202,0.12,0.1219,0.1208,0.1211,0.1213,0.1258,0.1266,0.1272,0,0,0,0,0,0,0.1141,0.1144,0.1152,0.1165,0.1173,0.1167,0.1184,0.1192,0.1209,0.1222,0.1209,0.121,0.1235,0.1222,0.1209,0.1234,0.1209,0.1211,0.1244,0.1251,0.1256,0.1273,0.1182,0,0,0,0,0,0.115,0.1161,0.1162,0.1177,0.1184,0.1191,0.12,0.1209,0.1216,0.1226,0.1231,0.1236,0.1237,0.1242,0.1241,0.1252,0.1248,0.1265,0.1271,0.1275,0.1289,0.1301,0.1309,0.1223,0.1223,0.1223,0,0,0.1159,0.1163,0.1171,0.1182,0.119,0.1202,0.1199,0.1221,0.124,0.1223,0.1261,0.1259,0.1246,0.1262,0.1272,0.1257,0.1297,0.1279,0.1283,0.1294,0.1304,0.1313,0.132,0.1224,0.1224,0.1224,0,0,0.1171,0.1188,0.1199,0.1209,0.1228,0.1231,0.1245,0.1257,0.1277,0.1304,0.1298,0.1313,0.1319,0.1312,0.1307,0.1344,0.1329,0.1346,0.1386,0.1398,0.1405,0.1411,0.1414,0.142,0.1347,0.1347,0.1347,0,0.1187,0.1196,0.1204,0.1217,0.1232,0.1248,0.1264,0.1281,0.1304,0.1321,0.1328,0.135,0.1341,0.1351,0.1368,0.1357,0.1362,0.1359,0.1405,0.1412,0.1417,0.1418,0.1424,0.135,0.1349,0.1349,0.1349,0,0.1196,0.1217,0.1226,0.1248,0.1265,0.1284,0.1304,0.1335,0.1364,0.1378,0.1415,0.1409,0.1421,0.1419,0.1408,0.144,0.1431,0.1412,0.1387,0.1429,0.1427,0.1433,0.1354,0.1353,0.1352,0.1351,0,0,0.1192,0.1226,0.1233,0.1249,0.1285,0.1294,0.1338,0.137,0.1401,0.1435,0.1471,0.1483,0.1493,0.149,0.1476,0.1489,0.153,0.1479,0.1478,0.1481,0.156,0.146,0.1456,0.1525,0.1527,0.1528,0.1542,0,0.1199,0.1226,0.1245,0.1279,0.1293,0.1328,0.1362,0.1399,0.1437,0.1477,0.1492,0.1521,0.1515,0.1527,0.1543,0.1533,0.1548,0.1528,0.152,0.152,0.1426,0.1461,0.1532,0.1545,0.1547,0.1548,0.1548,0,0.1195,0.1216,0.1249,0.1291,0.1302,0.1331,0.1389,0.1422,0.148,0.1513,0.1554,0.1571,0.1603,0.1589,0.1612,0.1605,0.1599,0.1588,0.1588,0.1483,0.1431,0.1496,0.1558,0.1557,0.1556,0.1556,0.1555,0,0.1171,0.1215,0.1244,0.126,0.1311,0.1344,0.1378,0.1438,0.1475,0.1543,0.1581,0.1617,0.1644,0.1652,0.1653,0.1641,0.1672,0.1639,0.1542,0.1535,0.1598,0.1591,0.1662,0.1662,0.1662,0.1662,0.1662,0,0.1153,0.1178,0.124,0.1253,0.1293,0.1338,0.1391,0.1433,0.1502,0.154,0.1602,0.1631,0.1669,0.1691,0.1676,0.1631,0.1692,0.156,0.1535,0.1618,0.1613,0.1602,0.1594,0.1662,0.1662,0.1662,0.1662,0,0.1113,0.1155,0.119,0.1257,0.1282,0.1312,0.1397,0.1427,0.1506,0.1561,0.159,0.1662,0.1683,0.1705,0.171,0.1647,0.1615,0.1585,0.1684,0.1663,0.1463,0.1458,0.1463,0.146,0.1457,0.1455,0.1453,0,0.1089,0.1106,0.1185,0.1209,0.1245,0.1302,0.1337,0.142,0.1453,0.1561,0.1572,0.1641,0.1672,0.1601,0.163,0.1593,0.1571,0.154,0.1492,0.1468,0.1445,0.1444,0.1444,0.1448,0.1448,0.1447,0.1446,0,0.1044,0.1087,0.1116,0.1169,0.1213,0.1249,0.1307,0.1324,0.1413,0.1505,0.1515,0.1518,0.154,0.153,0.1524,0.1494,0.1548,0.151,0.1515,0.1469,0.145,0.1429,0.1432,0.1436,0.1438,0.1439,0.1439,0,0.1017,0.1026,0.1077,0.1109,0.1161,0.1169,0.121,0.124,0.1282,0.1396,0.1397,0.146,0.153,0.148,0.1471,0.1439,0.1399,0.1329,0.1342,0.1354,0.1309,0.1268,0.1184,0,0,0,0,0,0.098,0.098,0.1009,0.1032,0.1079,0.1108,0.1174,0.1217,0.1308,0.1279,0.1333,0.1344,0.133,0.1362,0.1301,0.141,0.1403,0.1331,0.133,0.1382,0.1393,0.1349,0,0,0,0,0,0,0.0955,0.0982,0.0982,0.096,0.0963,0.0998,0.1037,0.1099,0.1085,0.1186,0.1186,0.1258,0.1266,0.1353,0.1276,0.1283,0.125,0.1374,0.137,0.1376,0.1386,0.1395,0.1354,0,0,0,0,0]},{"header":{"parameterUnit":"m.s-1","parameterCategory":2,"la1":30.2991,"la2":30.254,"lo1":-89.0895,"lo2":-89.0444,"dy":0.0017,"dx":0.0017,"nx":28,"ny":28,"refTime":"2025-07-08T21:00:00:Z","depth":"4","parameterNumber":3,"parameterNumberName":"V-component_of_CURRENTS"},"data":[0,0,0,0,0,0,0,0,0,0,0,0,0,0,0,0,0,0,0,0,0,0,0,0,0,0,0,0,0,0,0,0,0,0,0,0,0,0,0,0,0,0,0,0,0,0,0,0,0,0,0,0,0,0,0,0,0,0,0.0131,0.0131,0,0.0108,0.0107,0.0107,0.0091,0.009,0.009,0.009,0.0051,0.005,0.0049,0,0,0,0,0,0,0,0,0,0,0,0,0,0.0126,0.0127,0.0131,0.0131,0.013,0.0108,0.0107,0.0107,0.0091,0.009,0.009,0.009,0.0051,0.005,0.0049,0,0,0,0,0,0,0,0,0,0,0,0,0,0.0118,0.0127,0.0131,0.012,0.0119,0.0108,0.0107,0.0107,0.0091,0.009,0.009,0.009,0.0052,0.005,0.0049,0.0042,0,0,0.0044,0.0044,0,0,0,0,0,0,0,0,0.0118,0.0118,0.0122,0.0121,0.0119,0.0103,0.0091,0.0085,0.0091,0.0101,0.009,0.009,0.0067,0.0065,0.006,0.004,0.0039,0.0044,0.0043,0.0043,0.0042,0,0,0,0,0,0,0,0.0119,0.0119,0.0121,0.0122,0.012,0.0105,0.0103,0.009,0.0084,0.01,0.0099,0.0097,0.0066,0.0061,0.0059,0.0038,0.0044,0.0043,0.0042,0.0042,0.002,0.0021,0,0,0,0,0,0,0.0125,0.0119,0.0122,0.012,0.0119,0.0105,0.0104,0.0107,0.0084,0.0081,0.0097,0.0096,0.0064,0.006,0.0057,0.0064,0.0043,0.0041,0.0041,0.002,0.002,0.0021,0,0,0,0,0,0,0.0125,0.0126,0.0123,0.0119,0.0118,0.0105,0.011,0.0107,0.0105,0.0083,0.0079,0.0099,0.0064,0.0059,0.0051,0.0062,0.0041,0.0039,0.002,0.002,0.0021,0.0067,0,0,0,0,0,0,0.0125,0.0126,0.0132,0.012,0.0119,0.0123,0.011,0.0107,0.0105,0.0103,0.0083,0.0079,0.0063,0.0053,0.0049,0.0059,0.0038,0.0019,0.002,0.002,0.0065,0.0069,0.0072,0,0,0,0,0,0.0125,0.0135,0.0132,0.0132,0.0127,0.0123,0.0121,0.0111,0.0105,0.0108,0.0093,0.008,0.0054,0.0052,0.0048,0.0058,0.0019,0.002,0.002,0.0063,0.0068,0.0072,0,0,0,0,0,0,0.0134,0.0134,0.0131,0.0139,0.0135,0.0121,0.0122,0.0115,0.0106,0.0104,0.0083,0.0078,0.0075,0.0059,0.0057,0.0053,0.0035,0.0034,0.0069,0.0073,0.0077,0.0089,0.0037,0,0,0,0,0,0.0139,0.0148,0.0142,0.0148,0.0148,0.0136,0.0133,0.0127,0.0117,0.0113,0.0099,0.0084,0.0073,0.0068,0.0055,0.0052,0.0039,0.0055,0.0058,0.0062,0.0068,0.0061,0.0065,0.0023,0.0023,0.0023,0,0,0.0144,0.0145,0.0149,0.0151,0.0146,0.0152,0.0134,0.0134,0.014,0.011,0.0113,0.0096,0.0075,0.0074,0.0071,0.0062,0.0066,0.0063,0.0066,0.007,0.0062,0.0067,0.007,0.0023,0.0023,0.0023,0,0,0.0158,0.0159,0.0171,0.0172,0.0169,0.0164,0.0167,0.0158,0.0155,0.0154,0.0135,0.0127,0.0108,0.01,0.0093,0.0108,0.0086,0.0101,0.013,0.0123,0.0127,0.013,0.0118,0.0119,0.0103,0.0103,0.0103,0,0.0162,0.018,0.0173,0.0184,0.0191,0.0174,0.0188,0.0183,0.0173,0.0175,0.0161,0.0142,0.0124,0.0127,0.0131,0.0118,0.0107,0.0117,0.0129,0.0132,0.0134,0.0121,0.0122,0.0106,0.0105,0.0105,0.0105,0,0.0186,0.02,0.0207,0.022,0.0224,0.0234,0.0229,0.0231,0.0224,0.0217,0.0216,0.0191,0.0183,0.0173,0.0156,0.0165,0.0149,0.0135,0.0121,0.0142,0.0126,0.0126,0.0109,0.0108,0.0108,0.0107,0,0,0.0195,0.022,0.0223,0.0241,0.0247,0.0255,0.0266,0.0275,0.0288,0.0269,0.0284,0.0261,0.0247,0.0237,0.0214,0.0205,0.0208,0.018,0.0178,0.0172,0.019,0.0168,0.0166,0.0196,0.0197,0.0197,0.0172,0,0.0217,0.0253,0.0258,0.0293,0.0311,0.0308,0.0324,0.0327,0.0323,0.033,0.0305,0.0307,0.0271,0.0271,0.0256,0.022,0.0211,0.0216,0.0166,0.0165,0.0147,0.0167,0.0198,0.0172,0.0172,0.0172,0.0172,0,0.0239,0.0263,0.0303,0.034,0.0348,0.0366,0.0393,0.0405,0.0405,0.0403,0.0395,0.0372,0.0357,0.0325,0.0278,0.0282,0.0244,0.0212,0.021,0.0175,0.0144,0.0146,0.0172,0.0172,0.0172,0.0172,0.0172,0,0.0256,0.0295,0.0333,0.0345,0.0379,0.04,0.0418,0.0427,0.045,0.0452,0.0465,0.0434,0.0427,0.0375,0.0302,0.0294,0.0246,0.0225,0.0172,0.0169,0.0175,0.0172,0.0201,0.0201,0.0201,0.0201,0.0202,0,0.0277,0.0308,0.0347,0.0369,0.0417,0.043,0.0479,0.0487,0.0511,0.0544,0.0508,0.0519,0.044,0.0397,0.0326,0.0249,0.0265,0.0183,0.0165,0.0194,0.0193,0.0175,0.0172,0.02,0.0201,0.0201,0.0201,0,0.0287,0.0312,0.036,0.0409,0.0427,0.0462,0.0524,0.0559,0.0574,0.0616,0.0622,0.0589,0.0531,0.0443,0.0356,0.0286,0.021,0.0181,0.022,0.0203,0.0131,0.0131,0.0121,0.012,0.0119,0.0119,0.0118,0,0.0295,0.0321,0.0389,0.0425,0.0451,0.0508,0.0551,0.0587,0.0627,0.0657,0.0679,0.0637,0.0601,0.0465,0.0363,0.0228,0.0203,0.016,0.0143,0.0141,0.0125,0.0126,0.0127,0.0117,0.0117,0.0117,0.0116,0,0.031,0.0336,0.0376,0.045,0.0506,0.0572,0.0635,0.0669,0.0713,0.0729,0.0728,0.0656,0.0588,0.0466,0.0362,0.0263,0.0184,0.0152,0.0153,0.0136,0.0136,0.0121,0.0123,0.0114,0.0114,0.0114,0.0115,0,0.032,0.035,0.0407,0.0472,0.0544,0.0616,0.0651,0.0702,0.074,0.0766,0.0762,0.0686,0.0641,0.0485,0.039,0.0288,0.0254,0.021,0.0207,0.0208,0.0231,0.0244,0.0248,0,0,0,0,0,0.0327,0.0365,0.0427,0.0503,0.0576,0.0623,0.07,0.0731,0.0772,0.0777,0.0772,0.0707,0.0561,0.0499,0.0394,0.0364,0.023,0.0235,0.0176,0.01,0.0103,0.0112,0,0,0,0,0,0,0.0333,0.0388,0.0423,0.0516,0.0573,0.0659,0.0713,0.0744,0.0747,0.0765,0.0691,0.0664,0.0524,0.062,0.0386,0.0356,0.0299,0.0172,0.0169,0.0098,0.0101,0.0103,0.0114,0,0,0,0,0]}]]